Location: Gabarret
(42.4162°N, 0.7090°E)
Time: 09:39:58
(UTC+00:00)

Daily predictions for brighter satellites

Satellite Brightness Start Highest point End
(mag) Time Altitude Azimuth Time Altitude Azimuth Time Altitude Azimuth
NOSS 2-3 (E) 4.2 16:53:58 10° S 16:58:01 42° ESE 17:02:36 10° NE
USA 229 DEB 3.9 16:54:19 10° SW 17:00:51 71° NW 17:07:44 10° NNE
USA 229 3.9 16:54:25 10° SW 17:00:57 72° NW 17:07:49 10° NNE
BREEZE-M DEB (TANK) 4.0 16:57:36 10° WNW 17:01:22 24° NNW 17:03:30 10° NE
CZ-4 R/B 3.2 16:59:58 10° E 17:01:51 13° ENE 17:03:44 10° NE
Cosmos 1538 Rocket 4.3 16:56:40 10° SSW 17:01:55 76° WNW 17:07:17 10° NNE
NOSS 3-1 (C) 3.6 16:58:45 10° SW 17:04:13 70° NW 17:10:34 10° NNE
Lacrosse 4 Rocket 1.3 17:00:40 10° SSW 17:04:44 75° ESE 17:08:46 10° NNE
ASTEX 1 4.0 17:00:46 10° N 17:05:43 63° W 17:10:37 10° SSW
NOSS 3-1 (A) 3.3 17:00:41 10° SSW 17:06:08 79° ESE 17:12:24 10° NE
ERBS 3.3 17:03:03 10° WSW 17:06:11 39° NW 17:09:21 10° NNE
Okean-O 3.3 17:02:44 10° SE 17:06:41 32° ENE 17:10:39 10° N
NOSS 2-3 (D) 4.0 17:03:32 10° SSW 17:07:40 48° ESE 17:12:21 10° NE
SeaSat 1 3.5 17:04:04 10° ESE 17:08:02 25° NE 17:12:00 10° N
Cosmos 1633 Rocket 3.4 17:17:12 10° N 17:21:24 42° ENE 17:25:36 10° SSE
Envisat 3.4 17:17:33 10° SE 17:22:16 40° ENE 17:26:59 10° N
Cosmos 1862 3.6 17:18:51 10° N 17:22:41 44° ENE 17:26:31 10° SSE
Cosmos 1151 Rocket 3.8 17:20:28 10° SSE 17:24:20 32° E 17:28:14 10° NNE
CORIOLIS 4.1 17:21:10 10° SSE 17:26:33 75° ENE 17:32:00 10° N
Sich 1 3.0 17:22:53 10° N 17:27:16 83° E 17:31:40 10° S
Okean O Rocket 4.0 17:23:36 10° SSW 17:27:23 28° W 17:31:10 10° NW
SMAP 3.1 17:24:57 10° SSE 17:29:35 85° WSW 17:34:17 10° NNW
Cosmos 1328 Rocket 3.9 17:29:47 10° SSE 17:33:59 44° E 17:38:11 10° NNE
Cosmos 1666 Rocket 3.4 17:32:16 10° N 17:36:39 76° E 17:40:58 10° SSE
Cosmos 1933 Rocket 4.5 17:33:56 10° NNE 17:37:32 25° ENE 17:41:09 10° SE
SL-16 R/B 3.7 17:34:39 10° SE 17:37:43 15° E 17:38:07 15° E
Cosmos 1980 Rocket 2.4 17:32:42 10° S 17:38:09 52° ESE 17:43:40 10° NNE
Cosmos 1515 Rocket 4.3 17:34:36 10° SSE 17:38:26 30° E 17:42:16 10° NNE
COSMO-SKYMED 1 3.0 17:35:35 10° NNE 17:39:41 39° E 17:43:45 10° SSE
Cosmos 158 Rocket 4.3 17:37:04 10° S 17:42:05 45° ESE 17:46:56 10° NNE
Cosmos 2322 Rocket 3.8 17:42:05 10° SE 17:44:20 14° ESE 17:44:20 14° ESE
COBE Rocket 3.8 17:40:27 10° N 17:45:13 87° WNW 17:49:52 10° SSW
Cosmos 1633 2.8 17:41:36 10° NNW 17:45:14 71° W 17:48:50 10° S
NOSS 2-3 (C) 3.9 17:41:07 10° SW 17:45:25 73° NW 17:50:10 12° NNE
Cosmos 2297 Rocket 3.6 17:40:44 10° NW 17:46:01 41° WSW 17:51:16 10° S
Cosmos 2227 Rocket 3.5 17:41:19 10° NW 17:46:41 45° WSW 17:52:00 10° S
NOAA 12 4.1 17:41:32 10° SSE 17:46:52 83° ENE 17:52:13 10° NNW
Cosmos 1371 Rocket 4.1 17:41:59 10° N 17:47:04 51° ENE 17:52:05 10° SE
Cosmos 1464 Rocket 4.0 17:41:47 10° N 17:47:57 89° W 17:54:05 10° S
Geosat 3.9 17:44:52 10° NNE 17:49:55 72° ESE 17:54:55 10° SSW
GEOS 3 Rocket 3.6 17:49:25 12° NE 17:54:16 89° SE 17:59:33 10° SW
ATLAS 3B R/B 4.5 17:52:03 10° N 17:54:48 13° NNE 17:57:03 11° NE
H-2A R/B 4.2 17:55:20 10° S 17:58:57 40° W 18:02:34 10° NNW
Cosmos 2112 Rocket 4.0 17:54:02 10° SSW 17:59:14 82° WNW 18:04:30 10° NNE
Cosmos 1932 4.5 17:55:27 10° NNW 18:02:02 78° NE 18:08:34 10° SE
YAOGAN 1 2.8 17:58:13 10° SE 18:02:18 44° ENE 18:06:26 10° N
Cosmos 2263 Rocket 2.9 17:57:44 10° N 18:02:41 31° NE 18:04:09 28° E
SKYMED 3 4.4 17:59:30 10° NNE 18:03:51 74° ESE 18:08:10 10° S
Cosmos 1680 Rocket 3.9 17:59:55 10° SSW 18:05:04 63° WNW 18:10:18 10° NNE
Ariane Rocket 4.3 18:06:44 22° NE 18:06:44 22° NE 18:09:28 10° N
GPS 2-04 Rocket1 4.0 18:02:49 10° SW 18:05:38 23° S 18:06:34 21° SSE
Cosmos 1470 Rocket 3.5 18:03:29 10° N 18:08:00 74° E 18:12:27 10° SSE
Meteor 2-11 Rocket 4.4 18:02:55 10° N 18:09:04 87° W 18:15:14 10° S
COSMOS 2455 4.3 18:06:58 10° SSE 18:09:52 19° ESE 18:09:52 19° ESE
Cosmos 2346 Rocket 4.4 18:07:31 10° S 18:13:46 88° E 18:19:59 10° N
Cosmos 1697 Rocket 3.7 18:10:42 10° SW 18:16:05 44° WNW 18:21:30 10° NNE
APEX 3.6 18:13:45 10° SW 18:17:06 46° WNW 18:18:12 30° N
FengYun 1-2 T 4.2 18:14:21 10° SSE 18:19:53 83° WSW 18:25:24 10° NNW
YAOGAN 6 2.7 18:17:31 10° S 18:20:59 71° W 18:24:29 10° NNW
SKYMED 2 4.0 18:23:34 10° N 18:27:52 61° WNW 18:32:08 10° SSW
GENESIS II 4.1 18:29:03 10° SSW 18:33:05 89° NW 18:33:20 79° NNE
USA 215 4.1 18:33:21 30° NE 18:34:45 33° NNE 18:40:24 10° NW
CZ-4 R/B 2.0 18:32:20 10° S 18:36:25 58° W 18:40:26 10° NNW
Cosmos 1624 Rocket 4.3 18:32:12 10° NNW 18:37:31 67° WSW 18:42:47 10° S
Cosmos 2056 Rocket 3.7 18:33:28 10° NNW 18:38:35 67° WSW 18:43:44 10° S
Lacrosse 4 Rocket 4.1 18:41:59 10° WNW 18:43:54 13° NW 18:45:50 10° NNW
SeaSat 1 3.2 18:40:29 10° S 18:45:16 50° WSW 18:50:04 10° NW
Cosmos 2227 4.2 18:43:48 10° NNW 18:49:35 85° WSW 18:52:42 29° SSE
Meteor 1-26 Rocket 4.2 18:46:30 10° S 18:52:30 88° E 18:56:32 22° N
NOAA 11 4.1 18:47:38 10° SSE 18:53:03 88° WSW 18:58:32 10° NNW
Cosmos 1606 4.0 18:56:11 10° SSW 18:59:21 39° W 18:59:21 39° W
Cosmos 1634 Rocket 4.1 18:58:43 10° NNW 19:04:53 73° W 19:11:01 10° S
Cosmos 2228 Rocket 4.1 19:01:14 10° SSW 19:05:31 46° WNW 19:06:42 37° NW
SL-8 R/B 4.4 19:06:52 10° WSW 19:10:40 53° W 19:10:40 53° W
Timation 1 Rocket 4.4 19:14:13 10° NNW 19:20:00 74° W 19:20:00 74° W
SL-16 R/B 2.5 19:15:24 10° SSW 19:20:03 60° SW 19:20:03 60° SW
Cosmos 1980 Rocket 4.1 19:17:47 10° WSW 19:22:27 26° NW 19:25:47 16° N
Cosmos 2279 Rocket 4.4 19:16:59 10° N 19:21:39 53° NNW 19:21:39 53° NNW
CENTAUR R/B 4.0 19:19:00 10° NNW 19:24:25 33° NNE 19:24:25 33° NNE
Cosmos 2322 Rocket 3.1 19:22:39 10° SSW 19:26:13 41° SW 19:26:13 41° SW
ATLAS 2AS CENTAUR R/B 4.4 19:31:33 10° S 19:34:21 24° S 19:34:21 24° S
Cosmos 2263 Rocket 3.4 19:41:32 10° NW 19:45:55 37° W 19:45:55 37° W
USA 238 DEB 4.4 19:39:29 10° NNW 19:44:27 47° NNW 19:44:27 47° NNW
USA 238 4.4 19:39:35 10° NNW 19:44:32 47° NNW 19:44:32 47° NNW
ATLAS 3B R/B 4.4 19:41:55 10° NNW 19:44:18 20° N 19:44:18 20° N
NOSS 3-2 (A) 4.5 19:43:18 10° NNW 19:48:38 50° NNW 19:48:38 50° NNW
COSMOS 2455 4.5 19:50:33 10° SW 19:53:05 26° SW 19:53:05 26° SW
